星链-33892 (STARLINK-33892)

导读

STARLINK-33892是美国SpaceX星链星座的组网卫星,于2025年5月2日发射升空。星链项目旨在构建全球卫星互联网星座,为全球偏远地区、海洋航空等场景提供低成本宽带接入服务,该卫星是星链低轨星座扩容的组成部分,服务于星座全球覆盖能力的完善,支撑星链系统通信服务稳定性提升。

基本信息
目录编号:
63783
目录名称:
STARLINK-33892
国际标识:
2025-091J
轨道中心:
EARTH
卫星名称:
星链-33892
卫星全名:
星链-33892 (STARLINK-33892)
卫星状态:
在轨 (已飞行490 天)
发射日期:
2025-05-02 UTC
国别 :
美国 (US)
星等 :
--
轨道信息
数据来源 国际轨道数据 AOE轨道数据
星历时间 2026-09-04T00:20:47+0800
11小时前
查看轨道信息
2026-09-03T05:00:00+0800
1天前
查看轨道信息
半长轴 6861.181km 6861.22km
偏心率 0.0001176 0.0001987
轨道倾角 42.999° 42.998°
近地点辐角 272.344° 272.036°
升交点赤经 127.326° 131.879°
平近点角 87.728° 329.887°
近地点 482.237km 481.719km
远地点 483.851km 484.447km
周期 94.267分钟 94.267分钟
每日圈数 15.275818 15.275689
详细信息
固有亮度:
5
最大亮度:
2.5
卫星平台:
Starlink V1.0
覆盖范围:
全球
运营商:
太空探索技术公司
运营商所在国:
美国
制造商(研发单位):
太空探索技术公司
制造商所在国:
美国
使用方式:
暂无
卫星简介
Starlink 计划是 SpaceX 推出的全球卫星互联网项目,通过发射低轨道卫星,为全球尤其是偏远地区提供高速、低延迟的互联网服务。自 2019 年起,Starlink 已部署数千颗卫星,旨在缩小全球数字鸿沟,推动互联网普及。该项目还为军事、航空等行业提供通信支持,带来广泛经济效益。
2D轨道图
3D轨道图
轨道高度分析图
轨道倾角分析图
轨道综合分析图
查看轨道综合分析图
交会数据列表
事件ID 空间交会对象 最接近时刻(TCA) 交会距离 交会风险概率(CRP) 交会风险指数(CRI) 操作
CDM_260831-105205-789306-378321
2026-08-31T
10:52:55+0000
0.269 km
中距离
4.532647E-4 高风险 0.88
CDM_260901-200305-808206-378322
2026-09-01T
20:03:04+0000
0.403 km
远距离
1.19844E-4 高风险 0.77
CDM_260901-041105-796506-378321
2026-09-01T
04:11:16+0000
0.596 km
远距离
7.84761E-5 中风险 0.73
CDM_260901-174105-808206-378322
2026-09-01T
17:41:50+0000
0.780 km
远距离
1.784766E-5 中风险 0.6
CDM_260901-112605-919206-378321
2026-09-01T
11:26:40+0000
1.120 km
极远距离
6.836322E-6 低风险 0.52
CDM_260904-035704-939006-378323
2026-09-04T
03:57:01+0000
1.078 km
极远距离
4.514584E-6 低风险 0.48
CDM_260831-091805-789306-378321
2026-08-31T
09:18:46+0000
2.047 km
极远距离
1.821249E-6 低风险 0.4
CDM_260903-104805-321306-378321
2026-09-03T
10:48:18+0000
2.455 km
极远距离
1.780108E-6 低风险 0.4
CDM_260901-054505-796506-378321
2026-09-01T
05:45:25+0000
2.264 km
极远距离
1.293318E-6 低风险 0.37
CDM_260901-111405-796506-378321
2026-09-01T
11:14:58+0000
2.294 km
极远距离
1.260735E-6 低风险 0.37